UAE4224 OMDB-SBGL

Flight info

Callsign UAE4224
Flight time N/A
Altitude 31000
Route ANVIX R401 GIDIS G783 UKRAG L710 KUKDI/N0502F320 B400 RIGAM B404 DEMGO UB404 HARGA UM216 XAPSA/N0500F340 UM216 RUDOL DCT PATAR UN553 NALOS UT136 BUN UH1 KGI UB535 TOBAR/N0491F360 UB535 KSA UT417 EBNON UB535 INALO UT417 TETUX DCT 07S005E 08S000W 10S005W/N0485F380 12S010W 14S015W 16S020W 17S025W 18S030W/N0479F400 19S035W DCT UMREP UZ47 MOLSU
Aircraft B772/H-SDE2E3FGHIJ5LORVWXY/LB1D1

Departure

Time 2026-04-26 14:57
Airport Dubai International Airport (OMDB)

Arrival

Time N/A
Airport Rio Galeão – Tom Jobim International Airport (SBGL)
Time Latitude Longitude Altitude Speed Heading
2026-04-26 13:48 25.25012 55.36057 29 ft 0 kts 210°
2026-04-26 14:35 25.25013 55.36057 29 ft 0 kts 210°
2026-04-26 14:35 25.25022 55.36063 29 ft 2 kts 217°
2026-04-26 14:35 25.25033 55.36074 29 ft 2 kts 227°
2026-04-26 14:35 25.25043 55.36087 29 ft 2 kts 235°
2026-04-26 14:36 25.25051 55.36101 29 ft 2 kts 244°
2026-04-26 14:36 25.25057 55.36117 29 ft 2 kts 253°
2026-04-26 14:36 25.25060 55.36133 29 ft 2 kts 262°
2026-04-26 14:36 25.25061 55.36149 29 ft 2 kts 270°
2026-04-26 14:37 25.25060 55.36165 29 ft 2 kts 279°
2026-04-26 14:37 25.25057 55.36182 29 ft 2 kts 288°
2026-04-26 14:37 25.25051 55.36197 29 ft 2 kts 297°
2026-04-26 14:37 25.25044 55.36211 29 ft 2 kts 303°
2026-04-26 14:38 25.25035 55.36225 29 ft 2 kts 302°
2026-04-26 14:38 25.25027 55.36239 29 ft 2 kts 302°
2026-04-26 14:38 25.25020 55.36253 29 ft 2 kts 302°
2026-04-26 14:38 25.25014 55.36262 29 ft 2 kts 302°
2026-04-26 14:39 25.25012 55.36266 29 ft 0 kts 302°
2026-04-26 14:44 25.25021 55.36251 29 ft 5 kts 302°
2026-04-26 14:44 25.25045 55.36205 29 ft 8 kts 300°
2026-04-26 14:44 25.25081 55.36137 29 ft 11 kts 301°
2026-04-26 14:45 25.25128 55.36053 29 ft 13 kts 301°
2026-04-26 14:45 25.25161 55.35990 29 ft 15 kts 300°
2026-04-26 14:45 25.25228 55.35871 29 ft 14 kts 301°
2026-04-26 14:45 25.25281 55.35775 29 ft 15 kts 301°
2026-04-26 14:46 25.25329 55.35689 29 ft 13 kts 301°
2026-04-26 14:46 25.25383 55.35593 29 ft 14 kts 301°
2026-04-26 14:46 25.25439 55.35492 29 ft 13 kts 301°
2026-04-26 14:46 25.25492 55.35395 28 ft 15 kts 301°
2026-04-26 14:47 25.25548 55.35295 28 ft 14 kts 301°
2026-04-26 14:47 25.25606 55.35191 28 ft 13 kts 301°
2026-04-26 14:47 25.25649 55.35146 28 ft 9 kts
2026-04-26 14:47 25.25725 55.35189 28 ft 16 kts 31°
2026-04-26 14:48 25.25829 55.35261 27 ft 16 kts 31°
2026-04-26 14:48 25.25931 55.35329 28 ft 12 kts 31°
2026-04-26 14:48 25.25980 55.35392 28 ft 12 kts 66°
2026-04-26 14:48 25.25994 55.35482 28 ft 13 kts 91°
2026-04-26 14:49 25.25946 55.35604 28 ft 23 kts 122°
2026-04-26 14:49 25.25847 55.35783 28 ft 29 kts 121°
2026-04-26 14:49 25.25742 55.35973 28 ft 29 kts 121°
2026-04-26 14:49 25.25633 55.36168 28 ft 28 kts 121°
2026-04-26 14:50 25.25534 55.36347 28 ft 27 kts 121°
2026-04-26 14:50 25.25430 55.36533 28 ft 28 kts 121°
2026-04-26 14:50 25.25343 55.36690 28 ft 16 kts 121°
2026-04-26 14:50 25.25288 55.36787 29 ft 14 kts 121°
2026-04-26 14:51 25.25245 55.36866 29 ft 12 kts 121°
2026-04-26 14:51 25.25193 55.36961 29 ft 15 kts 121°
2026-04-26 14:51 25.25131 55.37072 30 ft 18 kts 121°
2026-04-26 14:51 25.25061 55.37198 30 ft 20 kts 121°
2026-04-26 14:52 25.24985 55.37337 31 ft 22 kts 121°
2026-04-26 14:52 25.24925 55.37443 32 ft 16 kts 121°
2026-04-26 14:52 25.24869 55.37546 33 ft 13 kts 120°
2026-04-26 14:52 25.24816 55.37642 33 ft 11 kts 121°
2026-04-26 14:53 25.24769 55.37725 34 ft 11 kts 121°
2026-04-26 14:53 25.24732 55.37793 35 ft 6 kts 121°
2026-04-26 14:53 25.24721 55.37814 36 ft 0 kts 121°
2026-04-26 14:54 25.24719 55.37815 36 ft 1 kts 121°
2026-04-26 14:54 25.24706 55.37840 36 ft 5 kts 122°
2026-04-26 14:54 25.24676 55.37893 37 ft 9 kts 119°
2026-04-26 14:54 25.24671 55.37947 37 ft 7 kts 65°
2026-04-26 14:55 25.24691 55.37967 37 ft 0 kts 30°
2026-04-26 14:55 25.24706 55.37977 37 ft 5 kts 30°
2026-04-26 14:55 25.24756 55.38008 37 ft 10 kts 30°
2026-04-26 14:55 25.24812 55.38018 36 ft 9 kts 314°
2026-04-26 14:56 25.24819 55.38007 36 ft 0 kts 301°
2026-04-26 14:56 25.24820 55.38005 36 ft 2 kts 301°
2026-04-26 14:56 25.24870 55.37914 35 ft 35 kts 301°
2026-04-26 14:56 25.25119 55.37463 31 ft 100 kts 301°
2026-04-26 14:57 25.25587 55.36619 28 ft 156 kts 300°
2026-04-26 14:57 25.26233 55.35465 139 ft 192 kts 301°
2026-04-26 14:57 25.26910 55.34252 894 ft 182 kts 301°
2026-04-26 14:57 25.27571 55.33057 1503 ft 180 kts 301°
2026-04-26 14:58 25.28233 55.31862 1855 ft 184 kts 301°
2026-04-26 14:58 25.28863 55.30629 2254 ft 185 kts 291°
2026-04-26 14:58 25.29049 55.29240 2611 ft 189 kts 261°
2026-04-26 14:58 25.28687 55.27854 2969 ft 190 kts 265°
2026-04-26 14:59 25.28894 55.26440 3228 ft 189 kts 302°
2026-04-26 14:59 25.29878 55.25501 3610 ft 190 kts 339°
2026-04-26 14:59 25.31219 55.25439 3912 ft 203 kts 14°
2026-04-26 14:59 25.32063 55.25931 4112 ft 212 kts 37°
2026-04-26 15:00 25.32989 55.27868 4526 ft 227 kts 84°
2026-04-26 15:00 25.32712 55.29602 4830 ft 231 kts 117°
2026-04-26 15:00 25.31929 55.31141 5217 ft 231 kts 122°
2026-04-26 15:00 25.31096 55.32658 5584 ft 232 kts 122°
2026-04-26 15:01 25.30248 55.34194 5932 ft 235 kts 122°
2026-04-26 15:01 25.29401 55.35725 6292 ft 235 kts 122°
2026-04-26 15:01 25.28540 55.37277 6664 ft 236 kts 122°
2026-04-26 15:01 25.27671 55.38838 6967 ft 239 kts 122°
2026-04-26 15:02 25.26811 55.40392 7006 ft 237 kts 122°
2026-04-26 15:02 25.25941 55.41970 7012 ft 237 kts 122°
2026-04-26 15:02 25.25085 55.43530 7012 ft 237 kts 122°
2026-04-26 15:02 25.24229 55.45101 7012 ft 238 kts 122°
2026-04-26 15:03 25.23345 55.46728 7027 ft 257 kts 122°
2026-04-26 15:03 25.22232 55.48352 7024 ft 271 kts 137°
2026-04-26 15:03 25.20837 55.49832 7021 ft 274 kts 139°
2026-04-26 15:03 25.19423 55.51296 7051 ft 286 kts 139°
2026-04-26 15:04 25.17923 55.52846 7325 ft 296 kts 139°
2026-04-26 15:04 25.16418 55.54403 7746 ft 301 kts 139°
2026-04-26 15:04 25.14860 55.56013 8200 ft 304 kts 139°
2026-04-26 15:04 25.13328 55.57598 8680 ft 305 kts 139°
2026-04-26 15:05 25.11769 55.59209 9197 ft 306 kts 139°
2026-04-26 15:05 25.11256 55.59739 9359 ft 306 kts 139°
2026-04-26 15:05 25.08636 55.62446 10141 ft 309 kts 139°
2026-04-26 15:05 25.07018 55.64114 10350 ft 323 kts 139°
2026-04-26 15:06 25.05339 55.65845 10485 ft 339 kts 139°
2026-04-26 15:06 25.03573 55.67664 10596 ft 354 kts 139°
2026-04-26 15:06 25.01724 55.69568 10723 ft 370 kts 139°
2026-04-26 15:06 24.99783 55.71569 10820 ft 384 kts 139°
2026-04-26 15:07 24.95775 55.75699 11459 ft 398 kts 139°
2026-04-26 15:07 24.93729 55.77806 11976 ft 399 kts 138°
2026-04-26 15:07 24.91700 55.79895 12421 ft 401 kts 138°
2026-04-26 15:08 24.89663 55.81992 12866 ft 403 kts 138°
2026-04-26 15:08 24.87590 55.84124 13347 ft 405 kts 138°
2026-04-26 15:08 24.85523 55.86249 13784 ft 407 kts 138°
2026-04-26 15:08 24.83418 55.88413 14239 ft 409 kts 138°
2026-04-26 15:09 24.81270 55.90421 14707 ft 409 kts 146°
2026-04-26 15:09 24.78787 55.92020 15121 ft 410 kts 157°
2026-04-26 15:09 24.76074 55.93084 15524 ft 410 kts 168°
2026-04-26 15:09 24.73243 55.93571 15937 ft 409 kts 179°
2026-04-26 15:10 24.70392 55.93589 16374 ft 410 kts 183°
2026-04-26 15:10 24.68475 55.93545 16653 ft 412 kts 183°
2026-04-26 15:10 24.64619 55.93396 17182 ft 414 kts 188°
2026-04-26 15:10 24.61765 55.92801 17579 ft 414 kts 198°
2026-04-26 15:11 24.59063 55.91659 17981 ft 414 kts 208°
2026-04-26 15:11 24.56614 55.90022 18413 ft 412 kts 218°
2026-04-26 15:11 24.54408 55.88005 18829 ft 413 kts 223°
2026-04-26 15:11 24.52223 55.85886 19265 ft 414 kts 223°
2026-04-26 15:12 24.50043 55.83773 19703 ft 415 kts 223°
2026-04-26 15:12 24.47874 55.81676 20133 ft 415 kts 223°
2026-04-26 15:12 24.45698 55.79577 20520 ft 417 kts 223°
2026-04-26 15:12 24.43489 55.77448 20922 ft 419 kts 223°
2026-04-26 15:13 24.41303 55.75345 21311 ft 420 kts 223°
2026-04-26 15:13 24.39075 55.73203 21663 ft 422 kts 223°
2026-04-26 15:13 24.36854 55.71069 21976 ft 425 kts 223°
2026-04-26 15:13 24.34600 55.68905 22337 ft 426 kts 223°
2026-04-26 15:14 24.32377 55.66772 22729 ft 426 kts 223°
2026-04-26 15:14 24.30135 55.64623 23073 ft 428 kts 223°
2026-04-26 15:14 24.27811 55.62526 23335 ft 432 kts 218°
2026-04-26 15:14 24.25191 55.60798 23567 ft 439 kts 209°
2026-04-26 15:15 24.22345 55.59557 23829 ft 444 kts 200°
2026-04-26 15:15 24.19339 55.58619 23907 ft 448 kts 198°
2026-04-26 15:15 24.16309 55.57719 23908 ft 446 kts 198°
2026-04-26 15:15 24.13283 55.56820 23927 ft 450 kts 198°
2026-04-26 15:16 24.10253 55.55918 24207 ft 451 kts 198°
2026-04-26 15:16 24.07186 55.55005 24598 ft 450 kts 198°
2026-04-26 15:16 24.04152 55.54102 24874 ft 452 kts 198°
2026-04-26 15:16 24.01084 55.53187 25058 ft 456 kts 199°
2026-04-26 15:17 23.98017 55.52274 25265 ft 459 kts 198°
2026-04-26 15:17 23.95919 55.51651 25423 ft 461 kts 199°
2026-04-26 15:17 23.91785 55.50425 25725 ft 464 kts 199°
2026-04-26 15:17 23.88627 55.49488 25986 ft 465 kts 199°
2026-04-26 15:18 23.85445 55.48544 26226 ft 467 kts 199°
2026-04-26 15:18 23.82262 55.47599 26424 ft 470 kts 199°
2026-04-26 15:18 23.79084 55.46656 26653 ft 472 kts 199°
2026-04-26 15:18 23.75917 55.45715 26888 ft 474 kts 199°
2026-04-26 15:19 23.72668 55.44751 27104 ft 476 kts 199°
2026-04-26 15:19 23.69489 55.43809 27313 ft 478 kts 199°
2026-04-26 15:19 23.66221 55.42839 27518 ft 480 kts 199°
2026-04-26 15:19 23.62986 55.41881 27712 ft 482 kts 199°
2026-04-26 15:20 23.59761 55.40926 27902 ft 484 kts 199°
2026-04-26 15:20 23.56443 55.39965 28100 ft 487 kts 197°
2026-04-26 15:20 23.53093 55.39411 28257 ft 494 kts 187°
2026-04-26 15:20 23.49582 55.39423 28419 ft 501 kts 179°
2026-04-26 15:21 23.46043 55.40032 28599 ft 507 kts 170°
2026-04-26 15:21 23.42612 55.40987 28804 ft 510 kts 168°
2026-04-26 15:21 23.35713 55.43144 28874 ft 513 kts 167°
2026-04-26 15:22 23.28800 55.45365 28871 ft 511 kts 167°
2026-04-26 15:22 23.21962 55.47544 28871 ft 513 kts 167°
2026-04-26 15:23 23.18493 55.48644 28984 ft 516 kts 167°
2026-04-26 15:23 23.15019 55.49744 29252 ft 516 kts 167°
2026-04-26 15:23 23.11551 55.50839 29470 ft 518 kts 167°
2026-04-26 15:23 23.08081 55.51934 29614 ft 520 kts 167°
2026-04-26 15:24 23.04586 55.53036 29761 ft 523 kts 167°
2026-04-26 15:24 23.01029 55.54147 29926 ft 525 kts 167°
2026-04-26 15:24 22.97474 55.55239 30111 ft 526 kts 167°
2026-04-26 15:24 22.93963 55.56317 30340 ft 527 kts 167°
2026-04-26 15:25 22.90422 55.57403 30567 ft 527 kts 167°
2026-04-26 15:25 22.88045 55.58132 30685 ft 528 kts 167°
2026-04-26 15:25 22.83271 55.59595 30851 ft 530 kts 167°
2026-04-26 15:25 22.79720 55.60683 30854 ft 531 kts 167°
2026-04-26 15:26 22.72591 55.62867 30856 ft 529 kts 167°
2026-04-26 15:26 22.65469 55.65046 30846 ft 529 kts 166°
2026-04-26 15:27 22.58377 55.67215 30843 ft 529 kts 166°
2026-04-26 15:27 22.51258 55.69394 30840 ft 528 kts 166°
2026-04-26 15:28 22.44122 55.71576 30832 ft 529 kts 166°
2026-04-26 15:28 22.37054 55.73734 30825 ft 528 kts 166°
2026-04-26 15:29 22.29921 55.75910 30824 ft 529 kts 166°
2026-04-26 15:30 22.15392 55.78197 30827 ft 525 kts 177°
2026-04-26 15:30 22.08112 55.78916 30830 ft 525 kts 177°
2026-04-26 15:31 21.97115 55.80004 30826 ft 526 kts 177°
2026-04-26 15:32 21.88589 55.80849 30822 ft 524 kts 177°
2026-04-26 15:32 21.78840 55.81814 30818 ft 525 kts 177°
2026-04-26 15:33 21.71532 55.82538 30819 ft 524 kts 176°
2026-04-26 15:33 21.64211 55.83259 30821 ft 525 kts 176°
2026-04-26 15:34 21.56887 55.83978 30828 ft 526 kts 176°
2026-04-26 15:34 21.49607 55.84692 30833 ft 526 kts 176°
2026-04-26 15:35 21.42274 55.85410 30835 ft 524 kts 176°
2026-04-26 15:35 21.35024 55.86120 30841 ft 525 kts 176°
2026-04-26 15:36 21.27707 55.86836 30846 ft 524 kts 176°
2026-04-26 15:36 21.20367 55.87552 30847 ft 525 kts 176°
2026-04-26 15:37 21.13074 55.88262 30852 ft 526 kts 176°
2026-04-26 15:37 21.05725 55.88977 30852 ft 526 kts 176°
2026-04-26 15:38 20.98403 55.89689 30855 ft 524 kts 176°
2026-04-26 15:38 20.91113 55.90396 30860 ft 526 kts 176°
2026-04-26 15:39 20.83813 55.91105 30843 ft 524 kts 176°
2026-04-26 15:39 20.77691 55.91699 30840 ft 525 kts 176°
2026-04-26 15:40 20.69103 55.92531 30846 ft 526 kts 176°
2026-04-26 15:40 20.61794 55.93238 30851 ft 526 kts 176°
2026-04-26 15:41 20.54480 55.93946 30852 ft 526 kts 176°
2026-04-26 15:41 20.47126 55.94656 30858 ft 527 kts 175°
2026-04-26 15:42 20.39777 55.95366 30860 ft 525 kts 175°
2026-04-26 15:42 20.32438 55.96073 30866 ft 526 kts 175°
2026-04-26 15:43 20.25092 55.96776 30867 ft 526 kts 175°
2026-04-26 15:44 20.14038 55.97827 30868 ft 526 kts 175°
2026-04-26 15:44 20.03022 55.98621 30865 ft 526 kts 180°
2026-04-26 15:45 19.91969 55.98827 30872 ft 525 kts 179°